Regional Weather Roundup
Issued by NWS

Home | Current Version | Previous Version | Graphics & Text | Print | Product List | Glossary On
Versions: 1 2 3 4 5 6 7 8 9 10 11 12 13 14 15 16 17 18 19 20 21 22 23 24 25 26 27 28 29 30 31 32 33 34 35 36 37 38 39 40 41 42 43 44 45 46 47 48 49 50
000
ASUS43 KDMX 190007
RWRIA

WEATHER ROUNDUP FOR IOWA
NATIONAL WEATHER SERVICE DES MOINES IA
600 PM CST THU DEC 18 2014

NOTE: "FAIR" INDICATES FEW OR NO CLOUDS BELOW 12,000 FEET WITH NO
SIGNIFICANT WEATHER AND/OR OBSTRUCTIONS TO VISIBILITY.

* - THESE STATIONS ARE NOT NWS STATIONS...THUS NOT UNDER NWS
QUALITY CONTROL.  THEY ALSO DO NOT REPORT WEATHER SUCH
AS PRECIPITATION OR FOG.

IAZ001>003-012>014-020>022-031>034-043>046-190100-
   NORTHWEST IOWA

CITY           SKY/WX    TMP DP  RH WIND       PRES   REMARKS
CARROLL *      CLOUDY    28  25  86 SE5       30.22S WCI  23
CHEROKEE *     CLOUDY    28  25  87 CALM      30.20F
DENISON *      CLOUDY    30  27  86 CALM      30.19F
LE MARS *      CLOUDY    28  25  86 SE6       30.21S WCI  22
ORANGE CITY *  PTCLDY    28  23  80 S3        30.19S
SHELDON *      CLOUDY    27  25  93 SE7       30.18S WCI  19
SIOUX CITY     CLOUDY    30  25  81 S7        30.21S WCI  23
6HR MIN TEMP:  28; 6HR MAX TEMP:  31;

SPENCER        CLOUDY    27  20  75 SE6       30.21S WCI  20
6HR MIN TEMP:  23; 6HR MAX TEMP:  27;

STORM LAKE *   CLOUDY    28  25  86 SE6       30.20F WCI  22
$$

IAZ055>058-069>071-079>083-090>094-190100-
   SOUTHWEST IOWA

CITY           SKY/WX    TMP DP  RH WIND       PRES   REMARKS
ATLANTIC *     CLOUDY    30  27  86 S3        30.22S
AUDUBON *      CLEAR     28  21  74 CALM      30.23R
CLARINDA *     CLOUDY    32  27  80 CALM      30.25R
COUNCIL BLFS * CLOUDY    30  30 100 CALM      30.20S
CRESTON *      CLOUDY    30  28  93 E3        30.22S
HARLAN  *      CLOUDY    30  30 100 CALM      30.25S
LAMONI         CLOUDY    29  25  85 CALM      30.22S
6HR MIN TEMP:  27; 6HR MAX TEMP:  30;

RED OAK *      CLOUDY    30  28  93 CALM      30.23S
SHENANDOAH *   CLOUDY    30  28  93 CALM      30.24S
$$

IAZ047>049-059>061-072>074-084-190100-
   CENTRAL IOWA

CITY           SKY/WX    TMP DP  RH WIND       PRES   REMARKS
AMES           CLOUDY    27  18  69 CALM      30.25S
6HR MIN TEMP:  24; 6HR MAX TEMP:  27; 6HR PCP: TRACE;

ANKENY *       CLOUDY    28  23  80 E6        30.26R WCI  22
CHARITON *     CLOUDY    28  25  86 NE3       30.24S
DES MOINES     CLOUDY    29  21  72 SE6       30.25S WCI  23
6HR MIN TEMP:  28; 6HR MAX TEMP:  31; 6HR PCP: TRACE;

GRINNELL*      CLOUDY    27  21  80 NE3       30.25S
KNOXVILLE *    CLOUDY    27  23  86 CALM      30.24S
MARSHALLTOWN   CLOUDY    24  18  77 E3        30.24S
6HR MIN TEMP:  22; 6HR MAX TEMP:  24;

PELLA *        CLOUDY    26  23  86 CALM      30.27S
PERRY *        CLOUDY    28  25  86 SE5       30.24S WCI  23
$$

IAZ004>006-015-016-023>025-035-036-190100-
   NORTH CENTRAL IOWA

CITY           SKY/WX    TMP DP  RH WIND       PRES   REMARKS
ALGONA *       CLOUDY    25  21  86 SE3       30.23S
CLARION *      CLOUDY    25  21  86 SE3       30.24S
ESTHERVILLE    CLOUDY    23  18  81 SE6       30.21S WCI  16
6HR MIN TEMP:  20; 6HR MAX TEMP:  23;

FORT DODGE *   CLOUDY    27  18  69 E5        30.24S WCI  21
MASON CITY     CLOUDY    23  17  78 CALM      30.25S
6HR MIN TEMP:  21; 6HR MAX TEMP:  24;

FOREST CITY *  CLOUDY    25  18  74 CALM      30.23S
IOWA FALLS *   CLOUDY    25  19  78 CALM      30.25S
$$

IAZ007>011-017>019-026>030-037>042-050>054-066-190100-
   NORTHEAST IOWA

CITY           SKY/WX    TMP DP  RH WIND       PRES   REMARKS
CEDAR RAPIDS   CLOUDY    25  18  74 N6        30.25S WCI  18
6HR MIN TEMP:  24; 6HR MAX TEMP:  25;

CHARLES CITY * CLOUDY    21  18  86 CALM      30.26R
CLINTON *      PTCLDY    21  16  79 CALM      30.30R
DECORAH *      CLOUDY    23  18  80 CALM      30.24R
DUBUQUE        CLEAR     21  15  78 E3        30.24S
6HR MIN TEMP:  20; 6HR MAX TEMP:  26;

MONTICELLO *   CLOUDY    25  21  86 W3        30.26S
OELWEIN *      MOCLDY    23  18  80 NW3       30.26R
WATERLOO       CLOUDY    23  18  81 N5        30.26S WCI  17
6HR MIN TEMP:  21; 6HR MAX TEMP:  25;

$$

IAZ064-065-067-068-078-190100-
   EAST CENTRAL IOWA

CITY           SKY/WX    TMP DP  RH WIND       PRES   REMARKS
DAVENPORT      CLOUDY    23  17  78 CALM      30.27S
6HR MIN TEMP:  23; 6HR MAX TEMP:  26;

IOWA CITY      CLOUDY    27  18  69 CALM      30.28S
6HR MIN TEMP:  25; 6HR MAX TEMP:  27;

MT. PLEASANT * CLOUDY    27  21  76 NE3       30.26S
MUSCATINE *    CLOUDY    28  19  69 N6        30.28F WCI  22
QUAD CITIES    CLOUDY    26  17  68 N5        30.28R WCI  20
6HR MIN TEMP:  26; 6HR MAX TEMP:  30;

$$

IAZ062-063-075>077-085>089-095>099-190100-
   SOUTHEAST IOWA

CITY           SKY/WX    TMP DP  RH WIND       PRES   REMARKS
BURLINGTON     CLOUDY    28  21  75 N5        30.26S WCI  23
6HR MIN TEMP:  27; 6HR MAX TEMP:  29;

FAIRFIELD *    CLOUDY    27  21  80 CALM      30.26S
FORT MADISON * CLOUDY    28  25  86 CALM      30.27S
KEOKUK *       CLOUDY    28  23  80 CALM      30.26S
OSKALOOSA *    CLOUDY    26  22  86 CALM      30.27R
CENTERVILLE *  MOCLDY    28  27  93 NE5       30.25S WCI  23
OTTUMWA        CLOUDY    26  22  84 CALM      30.26R
6HR MIN TEMP:  26; 6HR MAX TEMP:  27; 6HR PCP:  0.01;

WASHINGTON *   CLOUDY    28  25  86 N6        30.26F WCI  22
$$

ABBREVIATIONS USED IN REMARKS
   TC - TEMPERATURES IN CELSIUS
  WCI - WIND CHILL INDEX
   HX - HEAT INDEX
  VSB - VISIBILITY
$$



USA.gov is the U.S. government's official web portal to all federal, state and local government web resources and services.